Flag for Brazil Weather past 2 weeks in Pelotas, Rio Grande do Sul, Brazil

Now
64 °F

Passing clouds.


Feels Like: 64 °F
Forecast: 62 / 83 °F
Wind: 3 mph from Northeast

Location: Pelotas Airport


UV Index: 5 (Moderate)

Visibility: 4 mi


Pressure: 29.95 "Hg

Humidity: 100%

Dew point: 64 °F

Location of PelotasLocation

Historic Weather in Pelotas

°F

Pelotas temperature yesterday

Maximum temperature yesterday: 81 °F (at 2:00 PM)
Minimum temperature yesterday: 54 °F (at 4:00 AM)
Average temperature yesterday: 66 °F

Past Weeks' High & Low Weather Summary

 TemperatureHumidityPressure
High90 °F (Apr 5, 2:00 PM)100% (Apr 4, 7:00 AM)30.21 "Hg (Apr 4, 7:00 AM)
Low50 °F (Apr 15, 6:00 AM)27% (Apr 8, 4:00 PM)29.47 "Hg (Apr 12, 6:00 AM)
Average70 °F83%30.00 "Hg
* Reported Apr 2 3:00 AM — Apr 17 3:00 AM, Pelotas, Weather by CustomWeather, © 2014

Note: Actual official high and low records may vary slightly from our data, if they occured in-between our weather recording intervals... More about our weather records

Advertising

Historic Weather Conditions — Data for Previous 24 hours

 ConditionsComfort  
Time TempWeatherWind HumidityBarometerVisibility
3:00 AM
Apr 17
64 °FPassing clouds.3 mph100%29.95 "Hg4 mi
2:00 AM68 °FFog.5 mph94%29.95 "Hg3 mi
1:00 AM66 °FFog.5 mph100%29.95 "Hg3 mi
12:00 AM68 °FFog.9 mph94%29.98 "Hg3 mi
11:00 PM
Apr 16
66 °FClear.6 mph88%29.98 "Hg10 mi
10:00 PM64 °FClear.6 mph94%29.98 "Hg10 mi
9:00 PM68 °FClear.6 mph83%29.98 "Hg10 mi
7:00 PM68 °FPassing clouds.7 mph88%29.95 "HgN/A
6:00 PM70 °FPassing clouds.7 mph83%29.95 "HgN/A
5:00 PM75 °FPassing clouds.13 mph69%29.95 "HgN/A
4:00 PM79 °FPassing clouds.14 mph65%29.95 "HgN/A
3:00 PM81 °FSunny.13 mph62%29.95 "Hg10 mi
2:00 PM81 °FSunny.8 mph58%29.98 "Hg10 mi
1:00 PM79 °FSunny.7 mph61%29.98 "Hg10 mi
12:00 PM77 °FSunny.5 mph61%30.01 "Hg10 mi
11:00 AM73 °FSunny.10 mph74%30.04 "Hg10 mi
10:00 AM70 °FSunny.8 mph83%30.04 "Hg10 mi
9:00 AM64 °FSunny.3 mph94%30.04 "Hg10 mi
8:00 AM59 °FClear.No wind94%30.04 "Hg6 mi
7:00 AM55 °FClear.1 mph94%30.01 "Hg5 mi
6:00 AM54 °FSunny.No wind94%30.01 "Hg10 mi
5:00 AM54 °FClear.No wind100%30.01 "Hg10 mi
4:00 AM54 °FClear.No wind100%30.01 "Hg5 mi
Weather by CustomWeather, © 2014

See weather overview